Location: Gu�tanj
(46.5431°N, 14.9692°E)
Time: 07:16:58
(UTC+00:00)

Cosmos 1354 Rocket - Pass Details

Date: 03 March 2021
Orbit: 765 x 782 km, 74.0° (Epoch: 18 April)

Event Time Altitude Azimuth Distance (km) Brightness Sun altitude
Rises 18:19:25 0° 336° (NNW) 3,250 7.7 -16.3°
Reaches altitude 10° 18:21:49 10° 335° (NNW) 2,317 6.9 -16.7°
Maximum altitude 18:27:03 75° 251° (WSW) 795 4.1 -17.6°
Drops below altitude 10° 18:32:15 10° 167° (SSE) 2,296 6.2 -18.5°
Enters shadow 18:33:31 - 166° (SSE) 2,790 6.7 -18.7°
